TimeCDT,TemperatureF,Dew PointF,Humidity,Sea Level PressureIn,VisibilityMPH,Wind Direction,Wind SpeedMPH,Gust SpeedMPH,PrecipitationIn,Events,Conditions,WindDirDegrees,DateUTC
12:13 AM,26.6,23.0,86,30.22,7.0,North,6.9,-,0.01,,Overcast,360,2013-05-04 05:13:00
12:33 AM,26.6,24.8,93,30.21,10.0,North,5.8,-,0.01,,Overcast,360,2013-05-04 05:33:00
12:54 AM,26.6,23.0,86,30.21,10.0,North,5.8,-,0.01,,Overcast,360,2013-05-04 05:54:00
1:14 AM,26.6,23.0,86,30.21,10.0,North,5.8,-,N/A,,Overcast,350,2013-05-04 06:14:00
1:33 AM,26.6,23.0,86,30.20,10.0,North,5.8,-,N/A,,Overcast,350,2013-05-04 06:33:00
1:54 AM,26.6,24.8,93,30.20,10.0,North,6.9,-,N/A,,Overcast,350,2013-05-04 06:54:00
2:13 AM,26.6,24.8,93,30.20,4.0,NNW,6.9,-,N/A,,Overcast,340,2013-05-04 07:13:00
2:33 AM,28.4,24.8,86,30.19,3.0,North,6.9,-,0.01,,Overcast,350,2013-05-04 07:33:00
2:54 AM,28.4,24.8,86,30.18,4.0,North,6.9,-,0.02,,Overcast,350,2013-05-04 07:54:00
3:13 AM,28.4,24.8,86,30.18,3.0,North,8.1,-,0.02,,Overcast,350,2013-05-04 08:13:00
3:34 AM,28.4,24.8,86,30.18,3.0,North,5.8,-,0.03,,Overcast,350,2013-05-04 08:34:00
3:54 AM,28.4,24.8,86,30.18,3.0,North,8.1,-,0.04,,Overcast,350,2013-05-04 08:54:00
4:13 AM,28.4,24.8,86,30.18,2.5,North,6.9,-,0.02,,Overcast,360,2013-05-04 09:13:00
4:33 AM,28.4,24.8,86,30.18,5.0,North,6.9,-,0.03,,Overcast,350,2013-05-04 09:33:00
4:54 AM,28.4,24.8,86,30.18,7.0,North,4.6,-,0.04,,Overcast,360,2013-05-04 09:54:00
5:13 AM,28.4,24.8,86,30.19,10.0,North,4.6,-,N/A,,Overcast,350,2013-05-04 10:13:00
5:33 AM,28.4,24.8,86,30.19,10.0,North,5.8,-,N/A,,Overcast,350,2013-05-04 10:33:00
5:54 AM,28.4,24.8,86,30.19,7.0,North,5.8,-,N/A,,Overcast,360,2013-05-04 10:54:00
6:13 AM,28.4,24.8,86,30.19,10.0,North,5.8,-,N/A,,Overcast,350,2013-05-04 11:13:00
6:33 AM,28.4,24.8,86,30.19,10.0,North,6.9,-,N/A,,Overcast,350,2013-05-04 11:33:00
6:54 AM,28.4,24.8,86,30.20,10.0,North,5.8,-,N/A,,Overcast,350,2013-05-04 11:54:00
7:13 AM,28.4,26.6,93,30.20,10.0,North,5.8,-,N/A,,Overcast,350,2013-05-04 12:13:00
7:34 AM,28.4,26.6,93,30.20,10.0,NNW,5.8,-,N/A,,Overcast,340,2013-05-04 12:34:00
7:54 AM,28.4,26.6,93,30.20,10.0,North,4.6,-,N/A,,Overcast,350,2013-05-04 12:54:00
8:13 AM,30.2,26.6,86,30.20,10.0,North,8.1,-,N/A,,Overcast,350,2013-05-04 13:13:00
8:33 AM,30.2,26.6,86,30.20,10.0,North,5.8,-,N/A,,Overcast,350,2013-05-04 13:33:00
8:54 AM,30.2,26.6,86,30.20,10.0,North,6.9,-,N/A,,Overcast,360,2013-05-04 13:54:00
9:13 AM,30.2,26.6,86,30.21,4.0,North,5.8,-,N/A,,Overcast,350,2013-05-04 14:13:00
9:33 AM,30.2,26.6,86,30.21,3.0,North,5.8,-,N/A,,Overcast,360,2013-05-04 14:33:00
9:54 AM,30.2,26.6,86,30.21,4.0,North,3.5,-,N/A,,Overcast,350,2013-05-04 14:54:00
10:14 AM,30.2,28.4,93,30.22,5.0,Calm,Calm,-,N/A,,Overcast,0,2013-05-04 15:14:00
10:33 AM,30.2,28.4,93,30.22,5.0,North,3.5,-,N/A,Rain,Freezing Rain,10,2013-05-04 15:33:00
10:54 AM,30.2,28.4,93,30.22,10.0,North,4.6,-,N/A,,Freezing Rain,350,2013-05-04 15:54:00
11:13 AM,32.0,28.4,87,30.23,10.0,North,4.6,-,N/A,,Overcast,350,2013-05-04 16:13:00
11:34 AM,32.0,28.4,87,30.23,10.0,North,5.8,-,N/A,,Overcast,350,2013-05-04 16:34:00
11:54 AM,32.0,28.4,87,30.23,10.0,North,4.6,-,N/A,,Overcast,350,2013-05-04 16:54:00
12:13 PM,33.8,28.4,81,30.23,10.0,North,3.5,-,N/A,,Overcast,360,2013-05-04 17:13:00
12:38 PM,33.8,28.4,81,30.23,10.0,NNW,5.8,-,N/A,,Overcast,340,2013-05-04 17:38:00
12:53 PM,33.8,28.4,81,30.22,7.0,North,8.1,-,N/A,,Drizzle,350,2013-05-04 17:53:00
1:13 PM,33.8,30.2,87,30.22,7.0,North,10.4,-,0.01,Rain,Light Rain,350,2013-05-04 18:13:00
1:33 PM,33.8,30.2,87,30.21,10.0,North,12.7,16.1,0.01,,Mostly Cloudy,350,2013-05-04 18:33:00
1:53 PM,35.6,30.2,81,30.21,10.0,North,12.7,-,0.01,,Mostly Cloudy,360,2013-05-04 18:53:00
2:14 PM,35.6,30.2,81,30.21,10.0,North,8.1,-,N/A,,Overcast,360,2013-05-04 19:14:00
2:33 PM,35.6,30.2,81,30.21,10.0,NNW,9.2,-,N/A,,Overcast,340,2013-05-04 19:33:00
2:54 PM,35.6,30.2,81,30.21,10.0,NNW,6.9,-,N/A,,Overcast,340,2013-05-04 19:54:00
3:13 PM,35.6,30.2,81,30.21,10.0,NNW,5.8,-,N/A,,Overcast,340,2013-05-04 20:13:00
3:34 PM,35.6,32.0,87,30.21,10.0,North,9.2,-,N/A,,Overcast,350,2013-05-04 20:34:00
3:53 PM,35.6,32.0,87,30.21,10.0,North,9.2,-,N/A,,Overcast,350,2013-05-04 20:53:00
4:14 PM,35.6,32.0,87,30.21,10.0,North,4.6,-,N/A,,Overcast,360,2013-05-04 21:14:00
4:34 PM,35.6,30.2,81,30.21,10.0,North,6.9,-,N/A,,Overcast,360,2013-05-04 21:34:00
4:53 PM,35.6,30.2,81,30.21,10.0,North,9.2,-,N/A,,Overcast,350,2013-05-04 21:53:00
5:13 PM,35.6,30.2,81,30.21,10.0,NNW,11.5,-,N/A,,Overcast,340,2013-05-04 22:13:00
5:33 PM,35.6,30.2,81,30.21,10.0,NNW,8.1,-,N/A,,Overcast,340,2013-05-04 22:33:00
5:53 PM,35.6,30.2,81,30.21,10.0,North,11.5,-,N/A,,Overcast,350,2013-05-04 22:53:00
6:13 PM,35.6,30.2,81,30.21,10.0,North,11.5,-,N/A,,Overcast,350,2013-05-04 23:13:00
6:33 PM,35.6,30.2,81,30.21,10.0,North,9.2,-,N/A,,Overcast,350,2013-05-04 23:33:00
6:54 PM,33.8,30.2,87,30.22,10.0,North,6.9,-,N/A,,Overcast,350,2013-05-04 23:54:00
7:13 PM,33.8,30.2,87,30.22,10.0,North,5.8,-,N/A,,Overcast,360,2013-05-05 00:13:00
7:34 PM,33.8,30.2,87,30.22,7.0,North,4.6,-,N/A,,Overcast,360,2013-05-05 00:34:00
7:53 PM,33.8,30.2,87,30.22,7.0,North,5.8,-,N/A,,Overcast,360,2013-05-05 00:53:00
8:13 PM,33.8,30.2,87,30.22,7.0,North,8.1,-,N/A,,Overcast,360,2013-05-05 01:13:00
8:34 PM,33.8,30.2,87,30.22,7.0,North,5.8,-,N/A,,Overcast,360,2013-05-05 01:34:00
8:53 PM,33.8,30.2,87,30.22,5.0,North,9.2,-,N/A,,Overcast,360,2013-05-05 01:53:00
9:13 PM,33.8,30.2,87,30.23,5.0,North,6.9,-,N/A,,Overcast,350,2013-05-05 02:13:00
9:34 PM,33.8,30.2,87,30.23,5.0,North,5.8,-,N/A,,Overcast,10,2013-05-05 02:34:00
9:53 PM,33.8,30.2,87,30.23,5.0,North,4.6,-,N/A,,Overcast,360,2013-05-05 02:53:00
10:13 PM,33.8,28.4,81,30.24,5.0,North,4.6,-,N/A,,Overcast,350,2013-05-05 03:13:00
10:33 PM,33.8,28.4,81,30.23,5.0,North,4.6,-,N/A,,Overcast,360,2013-05-05 03:33:00
10:54 PM,33.8,28.4,81,30.23,2.5,North,6.9,-,N/A,,Overcast,350,2013-05-05 03:54:00
11:13 PM,32.0,28.4,87,30.22,2.0,North,8.1,-,N/A,,Overcast,350,2013-05-05 04:13:00
11:33 PM,32.0,28.4,87,30.22,1.5,North,6.9,-,N/A,,Overcast,350,2013-05-05 04:33:00
11:54 PM,32.0,28.4,87,30.22,1.5,North,4.6,-,N/A,,Overcast,360,2013-05-05 04:54:00